Content
SEND FEEDBACK

Daily
Averages
Monthly
Summary
United States of America

ENTERPRISE, ALABAMA


Home > North America > United States > Alabama
Elevation: 298 feet     Latitude: 31 17N     Longitude: 085 43W

WEATHER
 
SELECT A DAY
Number of Records: 68,230;   Date Range: 2/10/98 - 12/27/14
 
SHARE

PRINT THIS DATA

[ ← Previous Day ]
WEATHER ALMANAC - MAY 13, 2014
[ Next Day → ]
[ °C ]   °F
Weather ElementAverageHighLow
Temperature75.4 °F88 °F (3:53 pm)62.1 °F (5:53 am)
Dewpoint63.3 °F68 °F (8:53 am)60.1 °F (5:53 am)
Humidity69.6 %93 % (1:53 am)40 % (4:53 pm)
Barometer30.06 in30.12 in (8:53 am)30.01 in (4:53 pm)
Wind Speed2.3 mph6.9 mph (1:53 pm)
Weather ElementAverage
Visibility9 mi
Wind DirectionNNE (35 °)

Weather ElementTotal
Precipitation---
Cooling Degree Days10.1 (Base 65)
Growing Degree Days25.1 (Base 50)
Averaged from 20 records on May 13, 2014
WEATHER CONDITIONS BREAKOUT
WIND DIRECTION BREAKOUT
WEATHER BY HOUR - MAY 13, 2014
[ °C ]   °F
Local TimeTemperatureDewpointHumidityBarometerVisibilityWind DirectionWind SpeedGust SpeedPrecipitationEventsConditions
1:53 AM64.0 °F62.1 °F93 %30.06 in7.0 miCalmClear
2:53 AM63.0 °F61.0 °F93 %30.06 in6.0 miCalmClear
3:53 AM63.0 °F61.0 °F93 %30.06 in8.0 miNE (40°)3.5 mphClear
4:53 AM63.0 °F61.0 °F93 %30.07 in6.0 miCalmClear
5:53 AM62.1 °F60.1 °F93 %30.08 in7.0 miCalmClear
6:53 AM66.9 °F64.9 °F93 %30.10 in6.0 miCalmClear
8:53 AM75.9 °F68.0 °F76 %30.12 in10.0 miSSE (150°)5.8 mphClear
11:53 AM82.0 °F66.0 °F58 %30.11 in10.0 miCalm
12:53 PM87.1 °F64.0 °F46 %30.09 in10.0 miVariable4.6 mphPartly Cloudy
1:53 PM87.1 °F63.0 °F44 %30.07 in10.0 miSouth (190°)6.9 mphClear
2:53 PM87.1 °F63.0 °F44 %30.05 in10.0 miESE (120°)6.9 mphScattered Clouds
3:53 PM88.0 °F62.1 °F42 %30.03 in10.0 miESE (120°)4.6 mphPartly Cloudy
4:53 PM87.1 °F60.1 °F40 %30.01 in10.0 miVariable5.8 mphClear
5:53 PM86.0 °F61.0 °F43 %30.01 in10.0 miVariable3.5 mphClear
6:53 PM82.9 °F63.0 °F51 %30.01 in10.0 miCalmClear
7:53 PM78.1 °F64.0 °F62 %30.02 in10.0 miEast (80°)3.5 mphClear
8:53 PM73.0 °F66.0 °F79 %30.04 in10.0 miCalmClear
9:53 PM72.0 °F64.9 °F78 %30.06 in10.0 miCalmClear
10:53 PM70.0 °F64.9 °F84 %30.06 in10.0 miCalmClear
11:53 PM69.1 °F64.9 °F87 %30.05 in10.0 miCalmClear
Hourly data recorded from KLOR, located miles away from Enterprise, Alabama







STORIES FROM OUR PARTNERS